Showing default

STELLA, 22824

Orbit data source: Space-Track

STELLA, 22824 is a payload satellite owned by CNES (FR) in SSO that was launched on Sun, 26 Sep 1993 UTC via an ARIANE 40 launch vehicle from the French Guiana (FRGUI). Payloads include a variety of satellites, spacecraft, and rockets equipped with specific instruments for various scientific and technological missions. These include communications satellites like Starlink; space stations such as the ISS; scientific satellites like the Hubble; Earth observation satellites from companies like Planet Labs, Umbra, and HawkEye 360; GPS; miniature CubeSats for education and research; and military/defense satellites.

Loading next visibility...
STELLA details
Identifier
22824, 1993-061B
Orbit
SSO
Last TLE update5 hours ago
Origin
Flag of FRCNES (FR)
ManufacturerCNES
MissionOperational Civil Geodetic
Bus & MotorSTARLETTE, Unknown motor
Mass48 kg wet, 48 kg dry
Launch date (UTC)
1993-09-26 (31 years ago)
Launch vehicle
ARIANE 40
Launch site
French Guiana (FRGUI)
Object type
Payload
Rocket body
Debris
Shape & HBRSphere, 0.24 m
Radar Cross Section0.045 m², Medium (>0.1 m² and < 1m²)

Expand to show TLE details & history

TLE from 5 hours ago
0 STELLA
1 22824U 93061B   25025.58617551 -.00000014  00000-0  12914-4 0  9996
2 22824  98.8476  80.9644 0005317 273.8258 229.2153 14.27447581632350
Epoch: 2025-01-25T14:04Z
Definitive object data (Epoch: 2025-01-25T14:04:05.564Z)
Latitude36.5686°
Longitude-68.59623°
Altitude807.725 km
Speed7.452 km/s
True Right ascension17h 50m 14s
True Declination36° 24' 19"
Sunlit
Object was in daylight at TLE epoch
Visualization TLE readout
Latitude10.89423°
Longitude-73.26612°
Altitude803.379 km
Speed7.452 km/s
Apparent Right ascension14h 35m 35s
Apparent Declination-28° 15' 30"
Sunlit
Object is in daylight
Visualization observer readout
Local Sidereal Time20:35:04
Azimuth247.526° W
Elevation-17.596°
Doppler factor1
Orbital elements
Apogee altitude801.246 km
Perigee altitude793.615 km
Semi-major axis7,175.568 km
Eccentricity0.0005317
Inclination98.8476°
RAAN80.9644°
Arg. of periapsis273.8258°
True anomaly229.16919°
Mean anomaly229.2153°
Eccentric anomaly229.19224°
Mean motion3.57074 °/min
BSTAR0.000012914
Orbital period100.82 mins
Loading maneuver chart data...
Loading historical data...
Loading historical data...
Loading historical data...
Loading historical data...
Loading historical data...
Loading historical data...
Loading historical data...

STELLA Visibility forecast

Observer location: undefined°, undefined

Span
Click to sort rows by Start time (UTC) header in descending order
Start Az.
Max El. time (UTC)
Max El. Az.
Max El.
End time (UTC)
End Az.
9 mins2025-01-26 02:59:10.517Z139.452° SSE2025-01-26 03:03:10.517Z75.082° E36.15°2025-01-26 03:08:10.517Z358.783° N
5 mins2025-01-26 04:41:10.517Z237.36° WSW2025-01-26 04:43:10.517Z266.526° W19.337°2025-01-26 04:46:10.517Z306.587° NW
5 mins2025-01-26 15:16:10.517Z70.605° E2025-01-26 15:18:10.517Z98.371° ESE16.811°2025-01-26 15:21:10.517Z133.825° SE
8 mins2025-01-26 16:54:10.517Z358.914° N2025-01-26 16:58:10.517Z268.665° W38.475°2025-01-26 17:02:10.517Z214.162° SW
|